Location: Bratislava
(0.0000°N, 17.1167°E)
Time: 05:03:45
(UTC+01:00)

Cosmos 2298 Rocket - Pass Details

Date: 24 January 2021
Orbit: 775 x 784 km, 74.0° (Epoch: 04 March)

Event Time Altitude Azimuth Distance (km) Brightness Sun altitude
Rises 18:42:08 0° 193° (SSW) 3,252 7.7 -9.1°
Reaches altitude 10° 18:44:31 10° 193° (SSW) 2,323 7.0 -9.6°
Maximum altitude 18:49:48 86° 281° (W) 781 4.1 -10.9°
Drops below altitude 10° 18:55:05 10° 11° (N) 2,318 6.2 -12.1°
Sets 18:57:27 0° 12° (NNE) 3,245 6.9 -12.7°
